Location: Hylvaty SDH
(49.9612°N, 16.4057°E)
Time: 12:05:45
(UTC+01:00)

Tiros 1 - Pass Details

Date: 10 October 2020
Orbit: 630 x 663 km, 48.4° (Epoch: 28 October)

Event Time Altitude Azimuth Distance (km) Brightness Sun altitude
Rises 11:57:18 0° 236° (SW) 2,919 10.8 32.3°
Reaches altitude 10° 11:59:40 10° 230° (SW) 2,017 10.1 32.4°
Maximum altitude 12:04:06 46° 157° (SSE) 864 9.8 32.6°
Drops below altitude 10° 12:08:35 10° 85° (E) 2,042 9.9 32.7°
Sets 12:11:00 0° 80° (E) 2,960 10.5 32.8°
